TimeMDT,TemperatureF,Dew PointF,Humidity,Sea Level PressureIn,VisibilityMPH,Wind Direction,Wind SpeedMPH,Gust SpeedMPH,PrecipitationIn,Events,Conditions,WindDirDegrees,DateUTC
12:11 AM,44.6,30.2,57,29.83,10.0,NNW,29.9,46.0,N/A,,Overcast,330,2012-10-17 06:11:00
12:31 AM,39.2,33.8,81,29.82,10.0,NNW,23.0,40.3,N/A,,Drizzle,340,2012-10-17 06:31:00
12:51 AM,37.4,32.0,81,29.83,10.0,NW,23.0,-,N/A,,Mostly Cloudy,310,2012-10-17 06:51:00
1:11 AM,37.4,33.8,87,29.79,10.0,WNW,10.4,-,N/A,Rain,Light Rain,290,2012-10-17 07:11:00
1:31 AM,35.6,33.8,93,29.82,10.0,West,8.1,-,N/A,,Scattered Clouds,280,2012-10-17 07:31:00
1:51 AM,37.4,33.8,87,29.81,10.0,WNW,3.5,-,N/A,,Clear,300,2012-10-17 07:51:00
2:11 AM,35.6,32.0,87,29.82,10.0,WNW,4.6,-,N/A,,Clear,290,2012-10-17 08:11:00
2:31 AM,35.6,32.0,87,29.82,10.0,WNW,6.9,-,N/A,,Clear,290,2012-10-17 08:31:00
2:51 AM,35.6,32.0,87,29.82,10.0,West,6.9,-,N/A,,Clear,280,2012-10-17 08:51:00
3:11 AM,33.8,32.0,93,29.81,10.0,North,8.1,-,N/A,,Clear,360,2012-10-17 09:11:00
3:31 AM,35.6,32.0,87,29.79,10.0,North,3.5,-,N/A,,Clear,360,2012-10-17 09:31:00
3:51 AM,32.0,30.2,93,29.79,10.0,Calm,Calm,-,N/A,,Clear,0,2012-10-17 09:51:00
4:10 AM,33.8,28.4,81,29.79,10.0,West,5.8,-,N/A,,Clear,260,2012-10-17 10:10:00
4:31 AM,35.6,26.6,70,29.78,10.0,West,9.2,-,N/A,,Clear,280,2012-10-17 10:31:00
4:51 AM,33.8,26.6,75,29.79,10.0,West,5.8,-,N/A,,Clear,270,2012-10-17 10:51:00
5:11 AM,33.8,24.8,70,29.81,10.0,NE,5.8,-,N/A,,Clear,40,2012-10-17 11:11:00
5:50 AM,33.8,23.0,65,29.81,10.0,NNW,4.6,-,N/A,,Clear,340,2012-10-17 11:50:00
6:11 AM,35.6,21.2,56,29.82,10.0,North,16.1,20.7,N/A,,Clear,350,2012-10-17 12:11:00
6:30 AM,35.6,21.2,56,29.83,10.0,North,16.1,-,N/A,,Clear,350,2012-10-17 12:30:00
6:51 AM,35.6,19.4,52,29.84,10.0,North,15.0,26.5,N/A,,Clear,350,2012-10-17 12:51:00
7:11 AM,35.6,17.6,48,29.85,10.0,North,13.8,-,N/A,,Clear,350,2012-10-17 13:11:00
7:31 AM,35.6,15.8,44,29.87,10.0,North,19.6,27.6,N/A,,Clear,350,2012-10-17 13:31:00
7:50 AM,35.6,14.0,41,29.88,10.0,NNW,19.6,27.6,N/A,,Clear,330,2012-10-17 13:50:00
8:10 AM,37.4,12.2,36,29.89,10.0,NNW,20.7,26.5,N/A,,Clear,340,2012-10-17 14:10:00
8:31 AM,37.4,14.0,38,29.91,10.0,NNW,21.9,31.1,N/A,,Clear,340,2012-10-17 14:31:00
8:51 AM,39.2,12.2,33,29.91,10.0,NNW,23.0,28.8,N/A,,Clear,340,2012-10-17 14:51:00
9:11 AM,41.0,12.2,31,29.92,10.0,NNW,23.0,28.8,N/A,,Clear,340,2012-10-17 15:11:00
9:31 AM,41.0,12.2,31,29.92,10.0,NNW,21.9,28.8,N/A,,Clear,340,2012-10-17 15:31:00
9:51 AM,42.8,8.6,25,29.93,10.0,NNW,25.3,34.5,N/A,,Clear,340,2012-10-17 15:51:00
10:11 AM,42.8,8.6,25,29.93,10.0,NNW,29.9,39.1,N/A,,Clear,340,2012-10-17 16:11:00
10:31 AM,42.8,8.6,25,29.93,10.0,NW,21.9,35.7,N/A,,Clear,320,2012-10-17 16:31:00
11:11 AM,44.6,8.6,23,29.92,10.0,NNW,18.4,31.1,N/A,,Clear,340,2012-10-17 17:11:00
11:31 AM,44.6,5.0,20,29.92,10.0,NW,21.9,27.6,N/A,,Clear,310,2012-10-17 17:31:00
11:51 AM,46.4,3.2,17,29.91,10.0,NW,24.2,28.8,N/A,,Clear,320,2012-10-17 17:51:00
12:11 PM,46.4,5.0,18,29.91,10.0,NNW,21.9,27.6,N/A,,Clear,330,2012-10-17 18:11:00
12:31 PM,46.4,5.0,18,29.91,10.0,NW,20.7,25.3,N/A,,Clear,320,2012-10-17 18:31:00
12:51 PM,46.4,5.0,18,29.91,10.0,NNW,18.4,28.8,N/A,,Clear,330,2012-10-17 18:51:00
1:11 PM,46.4,3.2,17,29.91,10.0,NNW,17.3,29.9,N/A,,Clear,340,2012-10-17 19:11:00
1:31 PM,48.2,5.0,17,29.90,10.0,NNW,18.4,26.5,N/A,,Clear,340,2012-10-17 19:31:00
1:51 PM,48.2,5.0,17,29.89,10.0,North,20.7,28.8,N/A,,Clear,350,2012-10-17 19:51:00
2:11 PM,50.0,5.0,16,29.89,10.0,NNW,21.9,32.2,N/A,,Clear,330,2012-10-17 20:11:00
2:31 PM,50.0,3.2,15,29.89,10.0,NNW,15.0,27.6,N/A,,Clear,340,2012-10-17 20:31:00
2:51 PM,50.0,5.0,16,29.90,10.0,North,21.9,28.8,N/A,,Clear,350,2012-10-17 20:51:00
3:11 PM,50.0,5.0,16,29.90,10.0,North,23.0,27.6,N/A,,Clear,350,2012-10-17 21:11:00
3:30 PM,50.0,3.2,15,29.90,10.0,NNW,17.3,28.8,N/A,,Clear,330,2012-10-17 21:30:00
3:51 PM,50.0,5.0,16,29.90,10.0,North,18.4,27.6,N/A,,Clear,350,2012-10-17 21:51:00
4:11 PM,50.0,5.0,16,29.90,10.0,North,16.1,20.7,N/A,,Clear,350,2012-10-17 22:11:00
4:31 PM,50.0,3.2,15,29.90,10.0,NNW,16.1,26.5,N/A,,Clear,340,2012-10-17 22:31:00
4:51 PM,48.2,3.2,16,29.91,10.0,NNW,18.4,24.2,N/A,,Clear,340,2012-10-17 22:51:00
5:11 PM,46.4,3.2,17,29.91,10.0,NNW,17.3,20.7,N/A,,Clear,340,2012-10-17 23:11:00
5:30 PM,46.4,3.2,17,29.91,10.0,NNW,13.8,18.4,N/A,,Clear,340,2012-10-17 23:30:00
5:51 PM,44.6,5.0,20,29.92,10.0,NNW,8.1,-,N/A,,Clear,340,2012-10-17 23:51:00
6:11 PM,41.0,6.8,24,29.93,10.0,NNW,6.9,-,N/A,,Clear,340,2012-10-18 00:11:00
6:31 PM,37.4,6.8,28,29.94,10.0,NNW,5.8,-,N/A,,Clear,330,2012-10-18 00:31:00
6:51 PM,37.4,5.0,26,29.94,10.0,NNW,6.9,-,N/A,,Clear,330,2012-10-18 00:51:00
7:11 PM,41.0,3.2,21,29.94,10.0,NNW,8.1,-,N/A,,Clear,330,2012-10-18 01:11:00
7:31 PM,37.4,5.0,26,29.95,10.0,NW,8.1,-,N/A,,Clear,320,2012-10-18 01:31:00
7:51 PM,37.4,3.2,24,29.95,10.0,NW,9.2,-,N/A,,Clear,320,2012-10-18 01:51:00
8:11 PM,35.6,5.0,28,29.96,10.0,NW,9.2,-,N/A,,Clear,310,2012-10-18 02:11:00
8:31 PM,39.2,5.0,24,29.97,10.0,NW,9.2,17.3,N/A,,Clear,320,2012-10-18 02:31:00
8:51 PM,33.8,5.0,30,29.98,10.0,NW,8.1,-,N/A,,Clear,320,2012-10-18 02:51:00
9:11 PM,33.8,6.8,32,29.99,10.0,ENE,4.6,-,N/A,,Clear,60,2012-10-18 03:11:00
9:31 PM,35.6,5.0,28,30.00,10.0,NNE,4.6,-,N/A,,Clear,20,2012-10-18 03:31:00
9:51 PM,37.4,5.0,26,30.00,10.0,North,3.5,-,N/A,,Clear,10,2012-10-18 03:51:00
10:11 PM,35.6,5.0,28,30.00,10.0,North,4.6,-,N/A,,Clear,360,2012-10-18 04:11:00
10:31 PM,32.0,8.6,38,30.01,10.0,NW,3.5,-,N/A,,Clear,310,2012-10-18 04:31:00
10:51 PM,32.0,6.8,35,30.02,10.0,North,3.5,-,N/A,,Clear,360,2012-10-18 04:51:00
11:11 PM,35.6,5.0,28,30.02,10.0,NNE,4.6,-,N/A,,Clear,20,2012-10-18 05:11:00
11:31 PM,33.8,6.8,32,30.03,10.0,NE,4.6,-,N/A,,Clear,40,2012-10-18 05:31:00
11:51 PM,32.0,6.8,35,30.03,10.0,NE,3.5,-,N/A,,Clear,40,2012-10-18 05:51:00